TimeEST,TemperatureF,Dew PointF,Humidity,Sea Level PressureIn,VisibilityMPH,Wind Direction,Wind SpeedMPH,Gust SpeedMPH,PrecipitationIn,Events,Conditions,WindDirDegrees,DateUTC
12:53 AM,17.1,9.0,71,30.01,10.0,SSW,9.2,-,N/A,,Mostly Cloudy,210,2014-01-16 05:53:00
1:00 AM,17.1,9.0,71,29.98,10.0,SSW,8.1,-,N/A,,Scattered Clouds,210,2014-01-16 06:00:00
1:53 AM,18.0,10.0,71,30.00,10.0,SSW,9.2,-,N/A,,Scattered Clouds,210,2014-01-16 06:53:00
2:53 AM,17.1,10.0,74,30.00,10.0,SSW,9.2,-,N/A,,Clear,210,2014-01-16 07:53:00
3:53 AM,17.1,10.9,77,29.96,10.0,South,10.4,-,N/A,,Clear,190,2014-01-16 08:53:00
4:53 AM,19.0,12.0,74,29.92,10.0,South,13.8,19.6,N/A,,Overcast,190,2014-01-16 09:53:00
5:53 AM,19.9,12.9,74,29.86,10.0,South,17.3,23.0,N/A,,Overcast,190,2014-01-16 10:53:00
6:53 AM,21.9,14.0,72,29.86,10.0,SSW,12.7,19.6,N/A,,Overcast,200,2014-01-16 11:53:00
7:53 AM,23.0,14.0,68,29.83,10.0,South,18.4,23.0,N/A,,Overcast,190,2014-01-16 12:53:00
8:53 AM,23.0,15.1,72,29.82,4.0,South,16.1,25.3,0.00,Snow,Light Snow,190,2014-01-16 13:53:00
9:03 AM,23.0,16.0,74,29.79,1.8,SSW,18.4,25.3,0.00,Snow,Light Snow,200,2014-01-16 14:03:00
9:11 AM,23.0,16.0,74,29.79,1.0,SSW,19.6,26.5,0.00,Snow,Light Snow,200,2014-01-16 14:11:00
9:26 AM,23.0,17.1,78,29.80,0.8,SSW,15.0,29.9,0.00,Snow,Light Snow,200,2014-01-16 14:26:00
9:46 AM,23.0,19.0,85,29.79,0.2,SSW,17.3,26.5,0.00,Fog-Snow,Light Snow,200,2014-01-16 14:46:00
9:53 AM,21.9,19.0,89,29.83,0.2,SSW,18.4,27.6,0.00,Fog-Snow,Snow,200,2014-01-16 14:53:00
10:16 AM,23.0,19.0,85,29.79,0.5,South,16.1,26.5,0.00,Fog-Snow,Light Snow,190,2014-01-16 15:16:00
10:53 AM,23.0,19.0,85,29.80,0.5,South,23.0,31.1,0.00,Fog-Snow,Light Snow,190,2014-01-16 15:53:00
11:07 AM,23.0,19.9,88,29.76,0.2,South,23.0,31.1,0.01,Fog-Snow,Snow,190,2014-01-16 16:07:00
11:30 AM,23.0,19.9,88,29.75,0.5,South,18.4,27.6,0.01,Fog-Snow,Light Snow,190,2014-01-16 16:30:00
11:42 AM,24.1,19.9,84,29.74,0.5,South,25.3,31.1,0.01,Fog-Snow,Light Snow,190,2014-01-16 16:42:00
11:53 AM,24.1,19.9,84,29.76,0.5,South,19.6,27.6,0.01,Fog-Snow,Light Snow,190,2014-01-16 16:53:00
12:18 PM,24.1,19.9,84,29.72,1.2,South,20.7,34.5,0.00,Snow,Light Snow,190,2014-01-16 17:18:00
12:46 PM,25.0,19.9,81,29.70,2.0,SSW,19.6,26.5,0.00,Snow,Light Snow,210,2014-01-16 17:46:00
12:53 PM,25.0,19.9,81,29.73,0.8,SSW,18.4,33.4,0.00,Snow,Light Snow,200,2014-01-16 17:53:00
1:15 PM,25.0,19.9,81,29.69,2.0,SSW,17.3,27.6,0.00,Snow,Light Snow,200,2014-01-16 18:15:00
1:34 PM,25.0,19.9,81,29.68,0.8,SSW,18.4,25.3,0.00,Snow,Light Snow,210,2014-01-16 18:34:00
1:53 PM,25.0,21.0,85,29.70,0.8,SSW,16.1,26.5,0.00,Snow,Light Snow,200,2014-01-16 18:53:00
1:59 PM,25.0,21.0,85,29.67,1.5,South,13.8,26.5,0.00,Snow,Light Snow,190,2014-01-16 18:59:00
2:11 PM,26.1,21.0,81,29.66,2.5,SSW,15.0,23.0,0.00,Snow,Light Snow,200,2014-01-16 19:11:00
2:14 PM,26.1,21.0,81,29.65,4.0,SSW,17.3,24.2,0.00,Snow,Light Snow,200,2014-01-16 19:14:00
2:22 PM,26.1,21.0,81,29.65,9.0,SSW,12.7,25.3,0.00,,Overcast,200,2014-01-16 19:22:00
2:44 PM,26.1,21.0,81,29.65,1.8,SSW,17.3,24.2,0.00,Snow,Light Snow,210,2014-01-16 19:44:00
2:53 PM,26.1,21.0,81,29.68,0.5,SSW,16.1,24.2,0.00,Snow,Snow,210,2014-01-16 19:53:00
2:58 PM,26.1,21.9,84,29.65,0.2,SSW,15.0,24.2,0.00,Fog-Snow,Heavy Snow,210,2014-01-16 19:58:00
3:07 PM,25.0,23.0,92,29.65,0.2,SSW,15.0,21.9,0.00,Fog-Snow,Heavy Snow,210,2014-01-16 20:07:00
3:33 PM,26.1,23.0,88,29.65,0.5,SSW,15.0,24.2,0.01,Fog-Snow,Snow,200,2014-01-16 20:33:00
3:46 PM,26.1,23.0,88,29.65,2.0,South,16.1,-,0.01,Snow,Light Snow,190,2014-01-16 20:46:00
3:51 PM,26.6,23.0,86,29.65,1.8,SSW,13.8,23.0,0.01,Snow,Light Snow,200,2014-01-16 20:51:00
3:53 PM,26.1,23.0,88,29.68,1.2,SSW,13.8,-,0.01,Snow,Light Snow,200,2014-01-16 20:53:00
4:14 PM,26.1,23.0,88,29.66,3.0,SSW,13.8,21.9,0.00,Snow,Light Snow,200,2014-01-16 21:14:00
4:22 PM,26.1,21.9,84,29.66,4.0,South,17.3,28.8,0.00,Snow,Light Snow,190,2014-01-16 21:22:00
4:53 PM,27.0,21.9,81,29.69,9.0,SSW,16.1,23.0,0.00,,Overcast,210,2014-01-16 21:53:00
5:53 PM,27.0,21.9,81,29.70,9.0,SSW,13.8,23.0,0.00,,Overcast,210,2014-01-16 22:53:00
6:04 PM,27.0,21.0,78,29.68,10.0,SSW,13.8,-,N/A,,Mostly Cloudy,200,2014-01-16 23:04:00
6:53 PM,27.0,21.9,81,29.70,10.0,SSW,17.3,23.0,N/A,,Overcast,200,2014-01-16 23:53:00
7:51 PM,28.4,21.2,74,29.68,2.5,North,-9999.0,-,0.00,Snow,Light Snow,0,2014-01-17 00:51:00
7:53 PM,28.0,21.9,78,29.71,2.5,North,-9999.0,-,0.00,Snow,Light Snow,0,2014-01-17 00:53:00
8:04 PM,28.0,23.0,81,29.69,1.8,SW,12.7,25.3,0.00,Snow,Light Snow,220,2014-01-17 01:04:00
8:08 PM,28.0,24.1,85,29.68,0.8,North,-9999.0,-,0.00,Snow,Light Snow,0,2014-01-17 01:08:00
8:16 PM,28.0,25.0,88,29.68,1.0,North,-9999.0,-,0.00,Snow,Light Snow,0,2014-01-17 01:16:00
8:20 PM,28.0,24.1,85,29.68,4.0,SW,15.0,21.9,0.00,Snow,Light Snow,220,2014-01-17 01:20:00
8:53 PM,28.9,24.1,82,29.71,10.0,SW,13.8,21.9,0.00,,Overcast,230,2014-01-17 01:53:00
9:43 PM,30.0,25.0,82,29.71,10.0,WSW,13.8,-,N/A,,Mostly Cloudy,240,2014-01-17 02:43:00
9:53 PM,30.0,25.0,82,29.74,10.0,WSW,13.8,-,N/A,,Mostly Cloudy,240,2014-01-17 02:53:00
10:53 PM,30.0,21.9,72,29.74,10.0,North,-9999.0,-,N/A,,Mostly Cloudy,0,2014-01-17 03:53:00
11:53 PM,27.0,19.0,72,29.75,10.0,SSW,4.6,-,N/A,,Clear,210,2014-01-17 04:53:00